Lid_Strength_Index
13 11 11 12 12 12 13 12 15 13 14 11 9 8 7 6 6 6 5 7 6 6 6 4 4 4 3 4 3 3 3 4 4 3 2 2 3 3 3 3 4 4 5 6
14 10 11 13 11 11 10 11 11 11 11 9 7 7 7 6 7 7 7 7 6 6 5 5 4 4 4 4 4 5 5 5 3 3 3 4 4 4 4 4 5 5 5 7
16 11 13 16 13 11 11 9 10 13 9 8 8 8 7 7 7 7 7 7 6 5 5 6 5 4 4 4 4 5 5 4 4 4 4 4 5 5 5 4 4 5 7 8
16 14 21 14 9 10 11 9 8 9 9 8 8 8 7 6 7 7 6 6 6 5 6 6 5 5 4 5 5 5 5 5 5 5 5 5 5 4 4 4 4 5 6 8
18 18 15 12 11 12 13 13 9 9 8 7 7 8 8 6 6 6 6 5 5 5 6 6 5 5 5 5 4 4 4 5 5 5 5 4 4 4 4 4 5 5 5 6
16 19 19 14 10 7 8 16 10 9 9 8 9 12 10 7 6 6 6 5 6 5 6 5 4 4 5 5 4 5 5 5 5 4 4 4 4 4 4 5 6 6 8 7
15 17 15 11 10 7 16 15 12 9 8 8 10 8 7 7 6 6 6 5 5 5 4 5 4 4 5 5 5 4 4 4 4 4 3 4 4 4 5 5 5 6 6 8
14 16 19 10 11 15 12 11 9 8 7 8 8 9 7 7 7 7 7 6 6 6 6 5 4 5 6 6 5 4 5 5 5 4 4 4 4 4 4 4 4 5 6 7
15 14 10 10 12 10 9 8 7 8 8 8 9 9 8 8 8 7 6 6 6 5 6 6 5 5 6 5 5 5 5 5 5 4 4 4 4 4 4 3 4 6 6 7
14 12 11 10 10 9 8 7 8 7 8 9 10 10 10 9 8 7 7 7 7 6 6 6 6 6 6 5 5 5 6 5 7 10 9 9 10 11 11 8 8 7 7 8
13 11 11 10 11 9 8 7 8 8 8 9 9 10 10 10 8 8 7 8 7 7 7 7 6 6 5 5 6 7 8 9 11 12 13 14 14 13 14 14 10 10 11 11
15 13 12 11 10 8 9 9 8 10 10 9 9 10 9 9 9 8 7 7 8 7 7 7 6 6 6 6 7 8 9 10 11 12 13 14 14 14 14 12 12 12 12 11
13 11 11 10 10 9 9 9 8 10 10 10 9 9 9 9 9 9 7 7 7 7 7 7 7 7 7 6 7 8 10 10 10 11 11 12 12 13 12 12 11 12 12 12
11 11 11 11 11 9 9 9 8 9 9 9 9 9 9 9 8 9 8 7 6 7 7 7 7 7 6 6 7 7 8 9 8 9 9 10 9 8 8 9 10 10 11 10
12 11 11 10 9 9 9 9 10 10 10 9 9 10 9 9 10 9 8 7 7 7 7 7 7 7 6 6 6 7 7 7 6 7 6 6 6 7 7 7 7 8 9 11
12 12 11 11 10 10 10 10 11 11 10 10 10 10 9 9 9 9 8 7 8 8 8 7 7 7 7 6 7 8 8 10 8 7 6 7 7 7 8 8 9 9 9 9
13 13 12 12 11 11 11 10 11 11 10 11 11 10 9 10 9 9 9 8 8 8 7 8 8 7 8 8 7 8 8 6 8 6 6 7 7 8 8 9 10 10 10 10
11 11 11 11 11 11 10 11 10 11 11 11 10 10 10 10 10 10 9 9 9 9 8 8 8 8 7 7 7 7 7 7 6 7 7 7 7 7 7 8 9 9 9 9
11 11 11 11 10 10 11 11 10 10 11 11 10 11 10 10 9 10 9 9 10 10 9 8 9 8 7 8 7 7 7 6 7 7 7 8 7 8 8 9 9 9 9 8
11 11 11 10 10 10 11 10 10 11 10 11 10 11 11 11 10 10 10 11 10 9 8 7 7 7 7 7 8 7 7 7 7 7 7 8 8 9 9 10 9 9 8 7
12 11 11 11 10 10 10 10 10 11 10 10 10 10 11 10 9 10 11 12 10 8 7 9 8 7 7 8 7 6 6 7 7 7 8 8 8 8 8 8 9 8 7 7
11 11 11 10 10 11 10 9 10 10 11 10 9 9 10 10 10 10 8 10 9 11 9 8 8 11 9 9 6 6 6 6 7 7 8 8 8 8 8 8 8 7 7 7
11 10 11 11 10 11 10 10 10 10 10 10 10 10 10 10 9 10 11 9 8 10 8 9 13 13 13 5 6 6 6 6 7 7 7 8 8 8 8 8 7 7 7 7
10 10 10 10 10 11 11 11 10 9 9 10 9 9 10 11 10 9 9 11 12 10 8 9 11 13 10 6 6 6 7 7 7 7 7 10 8 8 7 7 7 7 7 7
9 9 9 10 10 11 10 10 9 9 9 8 8 8 8 8 9 9 9 10 12 9 8 13 12 12 6 6 6 6 7 7 7 7 7 7 7 7 6 6 7 7 7 7
9 9 10 9 9 10 10 10 10 10 9 9 9 8 8 8 8 9 9 9 8 9 8 7 6 6 6 6 6 6 7 7 6 7 7 7 6 6 7 7 6 6 6 7
8 9 8 9 10 9 9 10 10 10 10 9 9 8 8 8 8 8 9 8 8 7 6 7 7 7 6 6 6 6 6 6 7 6 6 6 6 5 5 4 5 6 6 7